Location: Medoc Mountain State Park
(36.2578°N, 77.8786°W)
Time: 07:49:40
(UTC-04:00)

Daily predictions for brighter satellites

Satellite Brightness Start Highest point End
(mag) Time Altitude Azimuth Time Altitude Azimuth Time Altitude Azimuth
Milstar 3 Cent rocket 3.4 20:36:57 10° W 20:45:32 42° SSW 20:50:34 10° ESE
Cosmos 2278 Rocket 2.4 20:40:24 10° NNW 20:46:02 59° ENE 20:51:36 10° SE
Cosmos 2233 Rocket 4.1 20:41:40 10° N 20:47:52 62° E 20:53:59 10° SSE
SL-24 R/B - RUBIN 2 4.2 20:43:29 10° SSW 20:48:34 58° ESE 20:54:22 10° NE
CZ-2D R/B 3.3 20:48:37 10° SSE 20:52:30 86° WSW 20:56:26 10° NNW
GEOS 3 Rocket 3.7 20:47:23 10° SE 20:52:41 89° WSW 20:57:56 10° NNW
Cosmos 1726 Rocket 4.3 20:51:19 10° NNE 20:55:25 35° ENE 20:59:28 10° SE
YAOGAN 11 4.2 20:52:41 10° SSE 20:57:01 64° ENE 21:01:19 10° N
Cosmos 2219 Rocket 3.6 20:52:42 10° SW 20:58:05 45° WNW 21:03:29 10° N
Lacrosse 5 rocket 1.3 20:57:43 10° SW 21:01:31 78° NW 21:05:31 10° NE
SL-16 R/B 2.3 20:56:45 10° S 21:02:14 54° ESE 21:07:44 10° NNE
Cosmos 2058 Rocket 3.9 20:59:44 10° NNE 21:03:43 33° ENE 21:07:26 11° SE
OAO 3 Copernicus 4.3 20:59:36 10° W 21:04:39 79° S 21:09:41 10° E
Meteor 1-13 Rocket 4.4 21:00:31 10° S 21:06:22 82° W 21:12:07 10° N
Meteor 1-23 Rocket 4.4 21:05:53 10° SSE 21:11:18 52° E 21:16:48 10° NNE
deb Chang Zheng 4 3.6 21:07:23 10° NNE 21:11:47 66° ESE 21:16:06 10° S
Okean 2 3.8 21:08:05 10° SSE 21:12:01 42° E 21:15:59 10° NNE
Cosmos 1666 4.1 21:08:59 10° NNE 21:12:06 22° ENE 21:14:16 15° ESE
Aureole 2 Rocket 3.6 21:09:18 10° SSE 21:12:51 29° ESE 21:16:10 10° NE
Cosmos 1500 3.5 21:09:29 10° NNW 21:13:21 69° W 21:17:12 10° S
Cosmos 494 Rocket 4.0 21:12:42 10° S 21:17:42 60° ESE 21:22:44 10° NNE
Cosmos 1743 2.6 21:17:24 10° N 21:21:16 81° E 21:25:01 10° S
SJ-11-01 4.2 21:21:45 10° SSE 21:26:24 82° ENE 21:31:06 10° N
Meteor 1-19 Rocket 4.5 21:25:07 10° SSW 21:30:45 73° W 21:36:21 10° N
Cosmos 1606 Rocket 3.8 21:26:26 10° NNW 21:30:52 72° W 21:35:14 10° S
Cosmos 1603 4.3 21:25:59 10° SSE 21:30:59 34° ESE 21:36:00 10° NE
PSLV R/B 3.9 21:29:37 10° SW 21:32:55 37° SSE 21:34:54 20° E
H-2A R/B 2.0 21:31:19 13° S 21:35:06 82° WSW 21:39:25 10° NNW
Meteor 2-4 Rocket 3.8 21:30:29 10° S 21:36:17 90° WNW 21:42:15 10° N
CZ-2C R/B 2.4 21:36:01 12° SSW 21:37:50 27° W 21:39:54 10° NW
Meteor 2-9 Rocket 4.3 21:33:26 10° N 21:39:04 64° E 21:43:22 18° SSE
Cosmos 1331 Rocket 3.9 21:35:09 10° NNW 21:40:23 83° ENE 21:44:03 20° SSE
SPOT 5 2.9 21:38:18 22° SE 21:40:57 52° ENE 21:45:12 10° N
Cosmos 2333 Rocket 4.5 21:36:24 10° WSW 21:41:09 27° WNW 21:45:56 10° N
Cosmos 1626 Rocket 3.8 21:41:51 20° SSE 21:44:42 51° E 21:49:01 10° NNE
Cosmos 2297 3.8 21:41:50 10° NNW 21:47:33 82° WSW 21:51:38 20° SSE
Cosmos 1302 Rocket 4.2 21:43:40 10° N 21:48:49 56° ENE 21:51:34 27° SE
CZ-4 SHROUD 3.1 21:49:26 37° SSE 21:50:31 78° ENE 21:53:42 10° N
Cosmos 1891 Rocket 4.4 21:48:27 10° N 21:54:36 74° E 21:58:42 22° SSE
APEX 3.9 21:50:54 10° NNW 21:54:56 57° ENE 21:57:10 30° SE
SeaSat 1 2.4 21:53:09 26° SSE 21:55:59 85° ENE 22:00:56 10° NNW
ATLAS CENTAUR R/B 4.3 21:53:10 10° WSW 21:57:14 25° NW 22:01:22 10° N
Cosmos 1943 4.3 21:57:45 23° ESE 21:57:50 23° E 22:02:10 10° NE
CZ-4B R/B 3.5 21:55:53 10° NNE 22:00:55 64° ESE 22:04:21 21° S
Cosmos 2228 3.2 22:01:09 10° NNW 22:05:33 71° W 22:07:57 26° S
Tsikada Rocket 4.0 22:07:06 15° S 22:12:35 88° E 22:19:00 10° N
YAOGAN 6 2.6 22:13:00 56° ESE 22:13:27 62° ENE 22:17:10 10° N
BREEZE-M DEB (TANK) 2.7 22:11:28 10° NW 22:13:12 43° W 22:13:12 43° W
Terra 3.4 22:13:07 19° ENE 22:13:48 19° ENE 22:17:09 10° NNE
Atlas Centaur 2 3.3 22:08:44 10° SW 22:16:12 45° SSE 22:20:37 26° ESE
COSMOS 2455 2.8 22:13:20 17° S 22:17:54 61° ESE 22:23:50 10° NE
CZ-4C R/B 4.3 22:17:57 34° E 22:18:20 35° ENE 22:22:09 10° N
MetOp-A 4.1 22:17:21 32° S 22:19:57 82° WSW 22:25:20 10° NNW
Envisat 3.6 22:16:49 22° SSW 22:19:58 51° W 22:24:55 10° NNW
ATLAS 3B R/B 3.4 22:18:09 32° SE 22:20:10 36° ESE 22:26:56 10° NE
SL-08 RB Rocket 4.0 22:23:10 44° ESE 22:23:52 48° ENE 22:28:14 10° N
USA 81 4.3 22:21:59 10° N 22:27:07 50° E 22:28:05 44° ESE
USA 234 3.2 22:27:51 37° SE 22:30:45 89° SW 22:37:22 10° NW
CARTOSAT-1 4.5 22:40:39 35° ENE 22:40:39 35° ENE 22:44:20 10° N
Cosmos 2369 Rocket 2.9 22:40:02 10° N 22:45:17 37° ENE 22:46:13 35° E
Cosmos 2142 Rocket 4.5 22:41:20 10° N 22:47:37 68° E 22:49:05 52° SE
Lacrosse 4 Rocket 3.7 22:50:41 13° NE 22:50:41 13° NE 22:51:17 10° NE
OAO 3 Copernicus 4.4 22:44:08 10° W 22:48:52 58° SSW 22:48:52 58° SSW
ARGOS 3.2 22:48:12 52° S 22:49:33 78° WSW 22:55:00 10° NNW
Abrixas rocket 3.5 22:46:30 10° NW 22:48:53 41° WNW 22:48:53 41° WNW
H-2A R/B 2.2 22:50:30 50° E 22:50:41 50° ENE 22:55:31 10° N
NOAA 11 4.1 22:52:09 56° S 22:53:19 79° WSW 22:58:46 10° NNW
Cosmos 1825 Rocket 3.5 22:54:01 79° WSW 22:54:09 80° W 22:58:37 10° N
Meteor 1-22 Rocket 4.3 22:49:17 10° N 22:54:46 58° E 22:55:18 55° ESE
SPOT 1/Viking Rocket 4.2 22:57:46 38° SW 22:59:06 47° W 23:04:05 10° NNW
Cosmos 1634 Rocket 3.9 22:54:39 10° N 23:00:51 89° W 23:02:12 58° S
Cosmos 1992 Rocket 3.8 22:58:02 10° NNW 23:03:17 82° ENE 23:03:30 79° ESE
Cosmos 1461 3.7 23:00:08 10° NW 23:03:39 42° W 23:03:39 42° W
DMSP B5D2-2 4.0 23:01:48 10° NNE 23:07:02 72° E 23:07:02 72° E
Cosmos 1346 Rocket 3.8 23:10:07 44° N 23:10:07 44° N 23:12:53 10° N
Cosmos 1190 Rocket 4.0 23:14:26 72° WSW 23:14:53 79° WNW 23:20:13 10° NNE
Cosmos 489 Rocket 4.4 23:20:42 64° SSW 23:21:47 89° W 23:28:11 10° NNE
Spot 4 4.1 23:27:26 67° NNW 23:27:26 67° NNW 23:31:34 10° NNW
Meteor 1-21 4.1 23:26:42 78° SW 23:27:02 83° W 23:32:52 10° N
Cosmos 2279 Rocket 3.8 23:21:34 10° N 23:27:50 86° E 23:28:19 78° SSE
Cosmos 676 Rocket 4.2 23:31:29 69° NNE 23:31:29 69° NNE 23:36:11 10° NNE
Cosmos 2180 Rocket 4.3 23:35:01 10° N 23:41:19 89° WSW 23:41:32 84° S
Cosmos 1943 4.2 23:39:28 31° WSW 23:41:32 43° WNW 23:46:56 10° N
Terra 3.0 23:52:00 36° WNW 23:52:00 36° WNW 23:55:40 10° NNW
